CZ-6A DEB, 60719

Orbit data source: Space-Track

CZ-6A DEB, 60719 is space debris in LEO originally from a launch on Tue, 06 Aug 2024 UTC launched from the Taiyaun Space Center, China (TSC). Debris objects in space refer to the collection of defunct objects orbiting the Earth. Examples of debris include non-operational satellites, rocket bodies, and fragments generated from explosions, collisions, or faulty payload assembly.

Loading next visibility...
Identifier
60719, 2024-140DY
Orbit
LEO
Country
Flag of CNCN / PRC
Related business
Manufacturer
SAST
Mission
Spacecraft
Bus & Motor
Unknown
Mass
Unknown
Launch date (UTC)
2024-08-06 (2 years ago)
Launch vehicle
Unknown
Launch site
Taiyaun Space Center, China (TSC)
Object type
Payload
Rocket body
Debris
Shape & HBR
Unknown shape, 0.2 m
Radar Cross Section
Medium (>0.1 m² and <1 m²)

Expand to show TLE details & history
Last TLE update: 14 hours ago

TLE from 14 hours ago
0 CZ-6A DEB
1 60719U 24140DY  26171.32198352  .00001382  00000-0  30225-3 0  9993
2 60719  89.2106 287.9114 0123857 299.4785  59.4114 14.52581177 98038
Epoch: 2026-06-20T07:43Z
TLE epoch observation values (Epoch: 2026-06-20T07:43:39.376Z)
Latitude
0.00007°
Longitude
-96.54094°
Altitude
676.416 km
Speed
7.542 km/s
True Right ascension
19h 11m 38s
True Declination
0° 00' 00"
Sunlit
Object was in full shadow at epoch
Visualization orbit readout
Latitude
Unknown
Longitude
Unknown
Altitude
Unknown
Speed
Unknown
Apparent Right ascension
Unknown
Apparent Declination
Unknown
Sunlit
N/A
Visualization observer readout
Local Sidereal Time
08:32:54
Azimuth
Unknown
Elevation
Unknown
Doppler factor
Unknown
Orbital elements
Apogee altitude
801.976 km
Perigee altitude
626.291 km
Semi-major axis
7,092.27 km
Eccentricity
0.01239
Inclination
89.2106°
RAAN
287.9114°
Arg. of periapsis
299.4785°
True anomaly
60.6428°
Mean anomaly
59.4114°
Eccentric anomaly
60.02614°
Mean motion
3.63384 °/min
Orbital period
99.07 mins
BSTAR
0.00030225
Loading maneuver chart data...
Computing Atmospheric mass density...
Loading historical data...
Loading historical data...
Loading historical data...
Loading historical data...
Loading historical data...
Loading historical data...
Loading historical data...

Documentation

Showing up to 5 results
|